{"data":{"norad_id":55957,"epoch":"2026-09-20T21:49:26.780736Z","epoch_age_seconds":70795,"freshness":"FRESH","line1":"1 55957U 23037AV  26263.90933774  .00002485  00000+0  21592-3 0  9997","line2":"2 55957  70.0012 132.3020 0002945 261.7684  98.3141 14.98334948193718","mean_motion":14.98334948,"eccentricity":0.0002945,"inclination_deg":70.0012,"raan_deg":132.302,"arg_perigee_deg":261.7684,"mean_anomaly_deg":98.3141,"bstar":0.00021592,"rev_number":19371,"period_min":96.106681748439,"perigee_km":569.99376240452,"apogee_km":574.08741700486,"semimajor_km":6950.1775897047,"source":"CELESTRAK","updated_at":"2026-09-21T09:00:33.347072Z"}}